Flag for India Weather past 2 weeks in Pratapgarh, Uttar Pradesh, India

Now
81 °F

Light rain. Mostly cloudy.


Feels Like: 88 °F
Forecast: 79 / 83 °F
Wind: No wind

Location: Lucknow / Amausi

Current Time: Jul 7, 2015 at 3:44:32 AM

Latest Report: Jul 7, 2015 at 2:00 AM


Visibility: 2 mi

Pressure: 29.50 "Hg

Humidity: 94%

Dew point: 79 °F

Location of PratapgarhLocation

Historic Weather in Pratapgarh — Graph

°F

Pratapgarh temperature yesterday

Maximum temperature yesterday: 90 °F (at 3:00 PM)
Minimum temperature yesterday: 79 °F (at 3:00 AM)
Average temperature yesterday: 83 °F

Past Weeks' High & Low Weather Summary

 TemperatureHumidityPressure
High108 °F (Jun 23, 4:00 PM)100% (Jun 29, 11:30 AM)29.65 "Hg (Jun 29, 11:30 AM)
Low75 °F (Jun 29, 8:00 PM)36% (Jun 23, 4:00 PM)29.27 "Hg (Jun 25, 4:30 PM)
Average90 °F69%29.48 "Hg
* Reported Midnight between Jun 21 and Jun 22 — Midnight between Jul 6 and Jul 7, Pratapgarh, Weather by CustomWeather, © 2015

Note: Actual official high and low records may vary slightly from our data, if they occured in-between our weather recording intervals... More about our weather records

Advertising

Pratapgarh weather history for previous 24 hours

 ConditionsComfort  
Time TempWeatherWind HumidityBarometerVisibility
12:00 AM
Tue, Jul 7
82 °FLight rain. Mostly cloudy.No wind89%29.50 "Hg1 mi
10:00 PM
Mon, Jul 6
82 °FMostly cloudy.No wind89%29.50 "Hg2 mi
9:00 PM82 °FMostly cloudy.2 mph89%29.50 "Hg2 mi
8:30 PM81 °FMostly cloudy.2 mph94%29.47 "Hg2 mi
8:00 PM81 °FMostly cloudy.2 mph94%29.47 "Hg2 mi
7:30 PM82 °FDrizzle. More clouds than sun.2 mph89%29.47 "Hg2 mi
7:00 PM84 °FLight rain. More clouds than sun.2 mph84%29.47 "Hg2 mi
6:30 PM88 °FCloudy.7 mph75%29.47 "Hg2 mi
6:00 PM88 °FBroken clouds.5 mph79%29.47 "Hg3 mi
5:30 PM90 °FBroken clouds.5 mph75%29.45 "Hg3 mi
5:00 PM90 °FBroken clouds.3 mph75%29.45 "Hg3 mi
4:30 PM88 °FBroken clouds.3 mph79%29.47 "Hg3 mi
3:30 PM90 °FBroken clouds.6 mph75%29.45 "Hg3 mi
3:00 PM90 °FBroken clouds.7 mph75%29.47 "Hg3 mi
2:30 PM88 °FMore clouds than sun.6 mph79%29.50 "Hg3 mi
11:00 AM82 °FMore clouds than sun.6 mph89%29.53 "Hg2 mi
10:30 AM82 °FLight rain. Cloudy.3 mph89%29.53 "Hg2 mi
9:30 AM81 °FLight rain. Cloudy.No wind94%29.53 "Hg2 mi
8:30 AM81 °FLight rain. Cloudy.2 mph94%29.50 "Hg2 mi
8:00 AM81 °FLight rain. More clouds than sun.2 mph89%29.50 "Hg2 mi
6:30 AM79 °FLight rain. Mostly cloudy.2 mph94%29.50 "Hg1 mi
6:00 AM79 °FLight rain. Mostly cloudy.2 mph94%29.50 "Hg1 mi
5:30 AM79 °FLight rain. Mostly cloudy.6 mph94%29.47 "Hg1 mi
5:00 AM79 °FLight rain. Mostly cloudy.5 mph94%29.47 "Hg1 mi
4:00 AM79 °FThunderstorms. Mostly cloudy.6 mph94%29.47 "Hg1 mi
3:00 AM79 °FThunderstorms. Mostly cloudy.9 mph94%29.47 "Hg1 mi
Weather by CustomWeather, © 2015

See weather overviewHow to use our weather pages